Flight Track Log - Related Links

Times and Time Zones

All times are in EDT time to prevent confusion due to time zone crossing. See the ASQ5545 flight status page for this flight to view local times or setup timezone preferences in your user account.

Time Position Orientation Groundspeed Altitude Reporting Facility
EDT Latitude Longitude Course Direction KTS MPH feet Rate Location/Type
Fri 02:10:50 PM 33.6500 -84.4500 270° West 159 183 1,900  Level Atlanta TRACON
Fri 02:11:51 PM 33.6500 -84.5167 270° West 229 264 3,400 2,182 Climbing Atlanta TRACON
Fri 02:12:51 PM 33.6667 -84.6000 284° West 264 304 6,300 2,789 Climbing Atlanta TRACON
Fri 02:13:45 PM 33.6833 -84.6833 284° West 278 320 8,700 2,182 Climbing Atlanta TRACON
Fri 02:15:58 PM 33.6847 -84.9100 270° West 307 353 13,100 1,927 Climbing Atlanta Center
Fri 02:16:58 PM 33.6733 -85.0222 263° West 330 380 14,900 1,750 Climbing Atlanta Center
Fri 02:17:58 PM 33.6600 -85.1369 262° West 344 396 16,600 1,550 Climbing Atlanta Center
Fri 02:18:58 PM 33.6464 -85.2517 262° West 349 402 18,000 700 Climbing Atlanta Center
Fri 02:19:58 PM 33.6389 -85.3611 265° West 349 402 18,000  Level Atlanta Center
Fri 02:20:58 PM 33.6294 -85.4758 264° West 349 402 18,000  Level Atlanta Center
Fri 02:21:58 PM 33.6175 -85.5903 263° West 349 402 18,000 -850 Level Atlanta Center
Fri 02:22:58 PM 33.6097 -85.7025 265° West 349 402 16,300 -1,685 Descending Atlanta Center
Fri 02:23:27 PM 33.6006 -85.7572 259° West 345 397 15,500 -1,900 Descending Atlanta Center
Fri 02:23:58 PM 33.5958 -85.8094 264° West 341 392 14,400 -2,000 Descending Atlanta Center
Fri 02:24:21 PM 33.5908 -85.8567 263° West 329 379 13,700 -1,900 Descending Atlanta Center
Fri 02:24:58 PM 33.5878 -85.9192 267° West 328 377 12,500 -1,869 Descending Atlanta Center
Fri 02:25:22 PM 33.5811 -85.9614 259° West 313 360 11,800 -1,400 Descending Atlanta Center
Fri 02:25:58 PM 33.5806 -85.9961 269° West 323 372 11,100 -700 Descending Atlanta Center
Fri 02:26:22 PM 33.5711 -86.0633 260° West 309 356 11,100  Level Atlanta Center
Fri 02:26:58 PM 33.5742 -86.1231 274° West 318 366 11,100  Level Atlanta Center
Fri 02:27:23 PM 33.5714 -86.1706 266° West 328 377 11,100 -100 Level Atlanta Center
Fri 02:27:58 PM 33.5722 -86.2303 271° West 318 366 11,000 -393 Descending Atlanta Center
Fri 02:28:24 PM 33.5694 -86.2728 266° West 308 354 10,700 -1,200 Descending Atlanta Center
Fri 02:28:58 PM 33.5706 -86.3225 272° West 306 352 9,800 -1,800 Descending Atlanta Center
Fri 02:29:24 PM 33.5678 -86.3700 266° West 261 300 8,900 -1,900 Descending Atlanta Center
Fri 02:29:58 PM 33.5689 -86.4122 272° West 282 325 7,900 -2,066 Descending Atlanta Center
Fri 02:30:25 PM 33.5661 -86.4572 266° West 257 296 6,800 -2,200 Descending Atlanta Center
Fri 02:30:58 PM 33.5736 -86.4972 283° West 267 307 5,700 -1,900 Descending Atlanta Center
Fri 02:31:25 PM 33.5875 -86.5350 294° West 258 297 4,900 -1,900 Descending Atlanta Center
Fri 02:31:58 PM 33.6097 -86.5681 309° West 242 278 3,800 -1,967 Descending Atlanta Center
Fri 02:32:26 PM 33.6256 -86.6058 297° West 249 287 2,900 -1,700 Descending Atlanta Center
Fri 02:32:58 PM 33.6289 -86.6408 277° West 247 284 2,100 -787 Descending Atlanta Center
Fri 02:33:27 PM 33.6139 -86.6703 239° Southwest 193 222 2,100 -472 Level Atlanta Center
Fri 02:34:27 PM 33.5900 -86.7094 234° Southwest 127 146 1,400 -700 Descending Atlanta Center
Fri 02:36:00 PM 33.5639 -86.7523 270° West  Level Estimated
Fri 02:43:00 PM 33.5639 -86.7523 270° West  Level Estimated

Login

Don't have an account? Register now (free) for customized features, flight alerts, and more!